• în România
  • Lista ţărilor
  • Pe 7 zile
  • Temperatura apei
  • Hartă satelitară
  • Meteo pe hartă
  • Widget-uri
  • user-avatar
    Intrare

    Meteo pe oră la Quito

    Astăzi, 21 Noiembrie, Marţi

    Timp Temperatura Precipitaţii Vânt Presiune Umiditate
    00:00 +16°C° 0,7 mm 1 m/s 622 mmHg 88%
    01:00 +16°C° 0 mm 1 m/s 622 mmHg 89%
    02:00 +16°C° 0,4 mm 1 m/s 622 mmHg 91%
    03:00 +15°C° 0,4 mm 1 m/s 622 mmHg 92%
    04:00 +15°C° 0,4 mm 1 m/s 621 mmHg 94%
    05:00 +16°C° 0,2 mm 1 m/s 622 mmHg 91%
    06:00 +16°C° 0,2 mm 0 m/s 623 mmHg 89%
    07:00 +18°C° 0 mm 0 m/s 623 mmHg 85%
    08:00 +21°C° 0,3 mm 1 m/s 624 mmHg 77%
    09:00 +23°C° 0,3 mm 1 m/s 624 mmHg 70%
    10:00 +25°C° 0,3 mm 1 m/s 624 mmHg 62%
    11:00 +26°C° 0,8 mm 1 m/s 624 mmHg 59%
    12:00 +27°C° 0,8 mm 1 m/s 624 mmHg 55%
    13:00 +28°C° 0,8 mm 1 m/s 623 mmHg 52%
    14:00 +27°C° 1,1 mm 1 m/s 623 mmHg 56%
    15:00 +26°C° 1,1 mm 1 m/s 622 mmHg 60%
    16:00 +26°C° 1,1 mm 1 m/s 622 mmHg 63%
    17:00 +24°C° 0,6 mm 1 m/s 622 mmHg 70%
    18:00 +21°C° 0,6 mm 2 m/s 621 mmHg 77%
    19:00 +19°C° 0,6 mm 2 m/s 621 mmHg 84%
    20:00 +18°C° 0,9 mm 2 m/s 621 mmHg 87%
    21:00 +17°C° 0,9 mm 2 m/s 622 mmHg 89%
    22:00 +18°C° 0,9 mm 1 m/s 622 mmHg 92%
    23:00 +18°C° 1,4 mm 1 m/s 622 mmHg 92%

    Mâine, 22 Noiembrie, Miercuri

    Timp Temperatura Precipitaţii Vânt Presiune Umiditate
    00:00 +18°C° 1,4 mm 1 m/s 622 mmHg 93%
    01:00 +18°C° 1,4 mm 1 m/s 621 mmHg 94%
    02:00 +18°C° 2,3 mm 1 m/s 621 mmHg 93%
    03:00 +18°C° 2,3 mm 1 m/s 621 mmHg 93%
    04:00 +18°C° 2,3 mm 1 m/s 621 mmHg 93%
    05:00 +18°C° 2 mm 1 m/s 622 mmHg 93%
    06:00 +16°C° 2 mm 1 m/s 622 mmHg 92%
    07:00 +16°C° 2 mm 2 m/s 622 mmHg 92%
    08:00 +18°C° 0,4 mm 2 m/s 623 mmHg 88%
    09:00 +19°C° 0,4 mm 2 m/s 623 mmHg 83%
    10:00 +20°C° 0,4 mm 2 m/s 623 mmHg 78%
    11:00 +23°C° 0,2 mm 2 m/s 623 mmHg 71%
    12:00 +25°C° 0,2 mm 2 m/s 623 mmHg 64%
    13:00 +26°C° 0,2 mm 2 m/s 623 mmHg 57%
    14:00 +26°C° 0,5 mm 2 m/s 622 mmHg 60%
    15:00 +25°C° 0,5 mm 2 m/s 622 mmHg 63%
    16:00 +25°C° 0,5 mm 1 m/s 621 mmHg 66%
    17:00 +23°C° 1,4 mm 1 m/s 621 mmHg 72%
    18:00 +21°C° 1,4 mm 1 m/s 621 mmHg 78%
    19:00 +19°C° 1,4 mm 1 m/s 621 mmHg 84%
    20:00 +19°C° 1,1 mm 1 m/s 621 mmHg 85%
    21:00 +18°C° 1,1 mm 1 m/s 621 mmHg 87%
    22:00 +18°C° 1,1 mm 1 m/s 622 mmHg 89%
    23:00 +18°C° 0,4 mm 1 m/s 621 mmHg 90%

    Poimâine, 23 Noiembrie, Joi

    Timp Temperatura Precipitaţii Vânt Presiune Umiditate
    00:00 +18°C° 0,4 mm 1 m/s 621 mmHg 91%
    01:00 +16°C° 0,4 mm 1 m/s 621 mmHg 92%
    02:00 +16°C° 0,1 mm 1 m/s 621 mmHg 92%
    03:00 +16°C° 0,1 mm 1 m/s 621 mmHg 93%
    04:00 +16°C° 0,1 mm 1 m/s 621 mmHg 93%
    05:00 +16°C° 0,3 mm 1 m/s 621 mmHg 93%
    06:00 +16°C° 0,3 mm 0 m/s 622 mmHg 93%
    07:00 +16°C° 0,3 mm 0 m/s 622 mmHg 93%
    08:00 +19°C° 0,1 mm 1 m/s 623 mmHg 87%
    09:00 +20°C° 0,1 mm 1 m/s 623 mmHg 82%
    10:00 +21°C° 0,1 mm 1 m/s 623 mmHg 76%
    11:00 +21°C° 0,1 mm 2 m/s 623 mmHg 71%
    12:00 +23°C° 0,1 mm 2 m/s 622 mmHg 66%
    13:00 +24°C° 0,1 mm 2 m/s 622 mmHg 61%
    14:00 +24°C° 0,3 mm 2 m/s 622 mmHg 65%
    15:00 +23°C° 0,3 mm 2 m/s 621 mmHg 69%
    16:00 +23°C° 0,3 mm 2 m/s 621 mmHg 73%
    17:00 +21°C° 0,3 mm 1 m/s 621 mmHg 78%
    18:00 +20°C° 0,3 mm 1 m/s 621 mmHg 84%
    19:00 +19°C° 0,3 mm 1 m/s 621 mmHg 89%
    20:00 +18°C° 0,2 mm 1 m/s 621 mmHg 90%
    21:00 +18°C° 0,2 mm 1 m/s 621 mmHg 92%
    22:00 +18°C° 0,2 mm 1 m/s 622 mmHg 94%
    23:00 +18°C° 0,2 mm 1 m/s 621 mmHg 94%

    24 Noiembrie, Vineri

    Timp Temperatura Precipitaţii Vânt Presiune Umiditate
    00:00 +16°C° 0,2 mm 1 m/s 621 mmHg 94%
    01:00 +16°C° 0,2 mm 1 m/s 621 mmHg 94%
    02:00 +16°C° 0,1 mm 1 m/s 621 mmHg 94%
    03:00 +15°C° 0,1 mm 0 m/s 621 mmHg 93%
    04:00 +15°C° 0,1 mm 0 m/s 621 mmHg 93%
    05:00 +16°C° 0 mm 0 m/s 621 mmHg 91%
    06:00 +16°C° 0 mm 0 m/s 622 mmHg 90%
    07:00 +17°C° 0 mm 0 m/s 622 mmHg 88%
    08:00 +21°C° 0,3 mm 1 m/s 623 mmHg 82%
    09:00 +22°C° 0,3 mm 1 m/s 624 mmHg 76%
    10:00 +24°C° 0,3 mm 1 m/s 624 mmHg 69%
    11:00 +24°C° 0,9 mm 2 m/s 624 mmHg 70%
    12:00 +24°C° 0,9 mm 2 m/s 623 mmHg 70%
    13:00 +24°C° 0,9 mm 2 m/s 622 mmHg 70%
    14:00 +23°C° 1,2 mm 2 m/s 622 mmHg 72%
    15:00 +23°C° 1,2 mm 2 m/s 621 mmHg 74%
    16:00 +21°C° 1,2 mm 2 m/s 621 mmHg 75%
    17:00 +21°C° 0,9 mm 1 m/s 621 mmHg 80%
    18:00 +20°C° 0,9 mm 1 m/s 621 mmHg 84%
    19:00 +18°C° 0,9 mm 1 m/s 621 mmHg 88%
    20:00 +18°C° 0,1 mm 1 m/s 622 mmHg 89%
    21:00 +18°C° 0,1 mm 1 m/s 622 mmHg 89%
    22:00 +18°C° 0,1 mm 1 m/s 622 mmHg 89%
    23:00 +16°C° 0,1 mm 1 m/s 622 mmHg 90%

    25 Noiembrie, Sâmbătă

    Timp Temperatura Precipitaţii Vânt Presiune Umiditate
    00:00 +16°C° 0,1 mm 1 m/s 621 mmHg 91%
    01:00 +15°C° 0,1 mm 0 m/s 621 mmHg 92%
    02:00 +15°C° 0,1 mm 0 m/s 620 mmHg 92%
    03:00 +15°C° 0,1 mm 0 m/s 620 mmHg 92%
    04:00 +15°C° 0,1 mm 0 m/s 620 mmHg 92%
    05:00 +15°C° 0,1 mm 0 m/s 621 mmHg 91%
    06:00 +16°C° 0,1 mm 0 m/s 622 mmHg 91%
    07:00 +16°C° 0,1 mm 0 m/s 622 mmHg 90%
    08:00 +18°C° 0 mm 0 m/s 623 mmHg 82%
    09:00 +21°C° 0 mm 0 m/s 624 mmHg 74%
    10:00 +23°C° 0 mm 0 m/s 624 mmHg 66%
    11:00 +23°C° 0,2 mm 0 m/s 624 mmHg 64%
    12:00 +26°C° 0,2 mm 1 m/s 623 mmHg 62%
    13:00 +26°C° 0,2 mm 1 m/s 622 mmHg 60%
    14:00 +25°C° 1,1 mm 1 m/s 622 mmHg 65%
    15:00 +24°C° 1,1 mm 1 m/s 621 mmHg 70%
    16:00 +24°C° 1,1 mm 1 m/s 621 mmHg 75%
    17:00 +22°C° 1,9 mm 1 m/s 621 mmHg 80%
    18:00 +21°C° 1,9 mm 1 m/s 621 mmHg 84%
    19:00 +19°C° 1,9 mm 1 m/s 621 mmHg 89%
    20:00 +19°C° 1,6 mm 1 m/s 621 mmHg 91%
    21:00 +19°C° 1,6 mm 1 m/s 621 mmHg 92%
    22:00 +18°C° 1,6 mm 1 m/s 622 mmHg 94%
    23:00 +18°C° 1,2 mm 1 m/s 621 mmHg 94%

    26 Noiembrie, Duminică

    Timp Temperatura Precipitaţii Vânt Presiune Umiditate
    00:00 +18°C° 1,2 mm 1 m/s 621 mmHg 95%
    01:00 +18°C° 1,2 mm 1 m/s 621 mmHg 96%
    02:00 +18°C° 1 mm 1 m/s 621 mmHg 95%
    03:00 +18°C° 1 mm 1 m/s 621 mmHg 95%
    04:00 +18°C° 1 mm 1 m/s 621 mmHg 95%
    05:00 +18°C° 0,8 mm 1 m/s 621 mmHg 95%
    06:00 +16°C° 0,8 mm 0 m/s 622 mmHg 94%
    07:00 +17°C° 0,8 mm 0 m/s 623 mmHg 93%
    08:00 +18°C° 0,7 mm 0 m/s 623 mmHg 90%
    09:00 +20°C° 0,7 mm 1 m/s 623 mmHg 87%
    10:00 +21°C° 0,7 mm 1 m/s 624 mmHg 84%
    11:00 +21°C° 0,8 mm 1 m/s 623 mmHg 85%
    12:00 +21°C° 0,8 mm 1 m/s 623 mmHg 86%
    13:00 +21°C° 0,8 mm 1 m/s 622 mmHg 87%
    14:00 +20°C° 1,5 mm 1 m/s 622 mmHg 89%
    15:00 +20°C° 1,5 mm 1 m/s 621 mmHg 91%
    16:00 +19°C° 1,5 mm 1 m/s 621 mmHg 94%
    17:00 +19°C° 0,8 mm 1 m/s 621 mmHg 94%
    18:00 +18°C° 0,8 mm 1 m/s 622 mmHg 95%
    19:00 +18°C° 0,8 mm 1 m/s 622 mmHg 95%
    20:00 +18°C° 0,1 mm 1 m/s 622 mmHg 96%
    21:00 +16°C° 0,1 mm 2 m/s 622 mmHg 96%
    22:00 +16°C° 0,1 mm 2 m/s 623 mmHg 97%
    23:00 +16°C° 0 mm 2 m/s 622 mmHg 97%
    Arată mai mult